Weather History for Clarksburg, WV

Change the Weather History Date:

Friday, August 23, 2013

  Actual Average Record
Temperature  
Mean Temperature 68 °F -  
Max Temperature 75 °F 82 °F 97 °F (1983)
Min Temperature 61 °F 58 °F 48 °F (1956)
Cooling Degree Days 4    
Growing Degree Days 18 (Base 50)    
Moisture  
Dew Point 64 °F    
Average Humidity 85    
Maximum Humidity 94    
Minimum Humidity 53    
Precipitation  
Precipitation 0.51 in - - ()
Sea Level Pressure  
Sea Level Pressure 30.05 in    
Wind  
Wind Speed 3 mph (SE)    
Max Wind Speed 8 mph    
Max Gust Speed -    
Visibility 7 miles    
Events Rain , Thunderstorm    
Averages and records for this station are not official NWS values.
T = Trace of Precipitation, MM = Missing Value Source: NWS Daily Summary

Daily Weather History Graph

Daily Weather History Graph

Search for Another Location

Airport:

Trip Planner

Search our weather history database for the weather conditions in past years. The results will help you decide how hot, cold, wet, or windy it might be!

Date:

Astronomy

Aug. 23, 2013 Rise Set
Actual Time 6:41 AM EDT 8:04 PM EDT
Civil Twilight 6:13 AM EDT 8:32 PM EDT
Nautical Twilight 5:39 AM EDT 9:06 PM EDT
Astronomical Twilight 5:04 AM EDT 9:41 PM EDT
Moon 9:24 PM EDT (8/23) 9:33 AM EDT (8/23)
Length of Visible Light 14h 19m
Length of Day
13h 23m
Waning Gibbous, 91% of the Moon is Illuminated
Aug 23
Waning Gibbous
Aug 28
Last Quarter
Sep 5
New
Sep 12
First Quarter
Sep 19
Full

Hourly Weather History & Observations

Time (EDT) Temp. Dew Point Humidity Pressure Visibility Wind Dir Wind Speed Gust Speed Precip Events Conditions
12:53 AM 69.1 °F 64.9 °F 87% 30.03 in 9.0 mi SW 5.8 mph - N/A   Scattered Clouds
1:53 AM 69.1 °F 64.9 °F 87% 30.00 in 8.0 mi South 3.5 mph - N/A   Partly Cloudy
2:53 AM 68.0 °F 64.9 °F 90% 29.99 in 8.0 mi Calm Calm - N/A   Partly Cloudy
3:53 AM 69.1 °F 64.0 °F 84% 29.99 in 9.0 mi Calm Calm - 0.00 in   Mostly Cloudy
4:06 AM 68.0 °F 64.4 °F 88% 30.02 in 9.0 mi Calm Calm - N/A   Mostly Cloudy
4:15 AM 68.0 °F 64.4 °F 88% 30.03 in 9.0 mi Calm Calm - 0.00 in Rain Light Rain
4:19 AM 68.0 °F 64.4 °F 88% 30.03 in 8.0 mi Calm Calm - 0.00 in Rain , Thunderstorm Light Rain
4:44 AM 68.0 °F 64.4 °F 88% 30.04 in 2.5 mi SW 3.5 mph - 0.05 in Rain , Thunderstorm Heavy Rain
4:53 AM 68.0 °F 64.9 °F 90% 30.00 in 2.5 mi WSW 5.8 mph - 0.09 in Rain , Thunderstorm Heavy Rain
5:03 AM 66.2 °F 64.4 °F 94% 30.04 in 2.0 mi West 4.6 mph - 0.05 in Rain , Thunderstorm Heavy Thunderstorms and Rain
5:11 AM 66.2 °F 64.4 °F 94% 30.03 in 2.0 mi West 8.1 mph - 0.09 in Rain , Thunderstorm Heavy Thunderstorms and Rain
5:30 AM 66.2 °F 64.4 °F 94% 30.02 in 1.5 mi Calm Calm - 0.18 in Rain Heavy Rain
5:42 AM 66.2 °F 64.4 °F 94% 30.03 in 2.5 mi SW 3.5 mph - 0.22 in Rain Heavy Rain
5:49 AM 66.2 °F 64.4 °F 94% 30.03 in 3.0 mi South 3.5 mph - 0.24 in Rain Rain
5:53 AM 66.9 °F 64.9 °F 93% 29.99 in 4.0 mi South 3.5 mph - 0.24 in Rain Rain
6:53 AM 66.9 °F 64.9 °F 93% 30.01 in 2.0 mi Calm Calm - 0.11 in Rain Light Rain
7:00 AM 66.2 °F 64.4 °F 94% 30.05 in 2.0 mi Calm Calm - 0.00 in Rain Light Rain
7:53 AM 66.9 °F 64.0 °F 90% 30.01 in 2.0 mi Calm Calm - 0.03 in Rain Light Rain
8:00 AM 66.2 °F 64.4 °F 94% 30.05 in 7.0 mi Calm Calm - 0.00 in   Scattered Clouds
8:13 AM 66.2 °F 64.4 °F 94% 30.06 in 5.0 mi West 3.5 mph - 0.00 in   Mostly Cloudy
8:53 AM 66.9 °F 64.9 °F 93% 30.03 in 6.0 mi Calm Calm - 0.00 in   Overcast
9:53 AM 66.9 °F 63.0 °F 87% 30.04 in 10.0 mi Calm Calm - 0.00 in   Overcast
10:53 AM 68.0 °F 64.9 °F 90% 30.05 in 6.0 mi Calm Calm - 0.04 in Rain Light Rain
11:00 AM 69.8 °F 66.2 °F 88% 30.09 in 10.0 mi ESE 3.5 mph - 0.00 in Rain Light Rain
11:44 AM 71.6 °F 64.4 °F 78% 30.09 in 10.0 mi Calm Calm - 0.00 in   Overcast
11:53 AM 72.0 °F 66.0 °F 81% 30.05 in 10.0 mi Calm Calm - 0.00 in   Overcast
12:25 PM 71.6 °F 64.4 °F 78% 30.09 in 10.0 mi ENE 3.5 mph - N/A   Mostly Cloudy
12:53 PM 72.0 °F 64.9 °F 78% 30.05 in 10.0 mi NNE 5.8 mph - N/A   Overcast
1:00 PM 71.6 °F 66.2 °F 83% 30.09 in 10.0 mi ENE 4.6 mph - N/A   Overcast
1:19 PM 71.6 °F 66.2 °F 83% 30.09 in 10.0 mi NE 5.8 mph - 0.00 in Rain Light Rain
1:30 PM 73.4 °F 66.2 °F 78% 30.09 in 10.0 mi ENE 6.9 mph - 0.00 in   Overcast
1:53 PM 73.0 °F 64.0 °F 73% 30.06 in 10.0 mi Calm Calm - 0.00 in   Overcast
2:53 PM 73.0 °F 64.9 °F 76% 30.05 in 10.0 mi Calm Calm - N/A   Scattered Clouds
3:53 PM 73.9 °F 63.0 °F 68% 30.04 in 10.0 mi ENE 5.8 mph - N/A   Mostly Cloudy
4:53 PM 75.9 °F 61.0 °F 60% 30.04 in 10.0 mi East 8.1 mph - N/A   Scattered Clouds
5:53 PM 75.0 °F 57.9 °F 55% 30.05 in 10.0 mi East 8.1 mph - N/A   Clear
6:53 PM 73.9 °F 55.9 °F 53% 30.04 in 10.0 mi East 5.8 mph - N/A   Clear
7:53 PM 71.1 °F 60.1 °F 68% 30.06 in 10.0 mi Calm Calm - N/A   Clear
8:53 PM 64.9 °F 61.0 °F 87% 30.10 in 10.0 mi Calm Calm - N/A   Clear
9:53 PM 63.0 °F 61.0 °F 93% 30.12 in 10.0 mi Calm Calm - N/A   Clear
10:53 PM 62.1 °F 60.1 °F 93% 30.13 in 10.0 mi Calm Calm - N/A   Clear
11:53 PM 61.0 °F 59.0 °F 93% 30.14 in 6.0 mi Calm Calm - N/A   Clear